Location: Unspecified
(44.4377°N, 88.0525°W)
Time: 04:02:38
(UTC-06:00)

CZ-3 Stage 3 - Pass Details

Date: 30 January 2021
Orbit: 398 x 34787 km, 30.8° (Epoch: 27 February)

Event Time Altitude Azimuth Distance (km) Brightness Sun altitude
Rises 16:52:44 0° 245° (WSW) 5,084 12.7 0.2°
Reaches altitude 10° 16:54:43 10° 241° (WSW) 4,723 8.8 -0.1°
Maximum altitude 17:11:24 62° 162° (SSE) 6,653 7.3 -2.8°
Drops below altitude 10° 01:42:59 10° 174° (S) 20,071 9.4 -56.0°
Sets 02:04:02 0° 168° (SSE) 16,606 9.1 -53.2°
